Notices

What's New in latest Release from April 7th, 2021:

- Updated Glossary, including Speed of Maximum Gust, and Total Hourly Precipitation

- Updated national and regional climate services offices contacts and prices information

- Addition of station inventory lists for 1981-2010, 1971-2000, and 1961-1990 Normals.

If you haven't already, please take our survey and provide feedback about our website: https://eccc.sondage-survey.ca/f/LanguageSelection.aspx?s=442ca660-fcf1-47c0-95a9-59707d6fd709

Hourly Data Report for April 17, 2021

CORNER BROOK
NEWFOUNDLAND
Current Station Operator: ECCC - MSC

48°56'00.000" N
57°55'00.000" W
151.80 m
8401298
71973
WKB

Download Data

Hourly Data (April 2021)
Hourly Data Report for April 17, 2021
TIME
LST
Temp Definition
°C
Dew Point Definition
°C
Rel Hum Definition
%
Precip. Amount Definition
mm

Wind Dir Definition
10's deg

Wind Spd Definition
km/h
Visibility Definition
km
Stn Press Definition
kPa
Hmdx Definition


Wind Chill Definition


Weather Definition


00:30 -1.2 -5.5 72 0.0 9 12   100.08   -5 LegendNANA
01:30 -1.1 -5.4 72 0.0 10 10   100.07   -5 LegendNANA
02:30 -1.1 -5.3 73 0.0 10 10   100.04   -5 LegendNANA
03:30 -1.1 -5.1 74 0.0 12 10   100.03   -5 LegendNANA
04:30 -1.2 -5.6 72 0.0 10 11   100.04   -5 LegendNANA
05:30 -1.2 -5.7 72 0.0 11 13   100.08   -5 LegendNANA
06:30 -0.9 -5.7 70 0.0 10 14   100.07   -5 LegendNANA
07:30 -0.2 -5.4 68 0.0 11 10   100.07   -4 LegendNANA
08:30 1.2 -5.2 62 0.0 10 13   100.03     LegendNANA
09:30 2.2 -4.9 60 0.0 11 14   99.98     LegendNANA
10:30 3.0 -4.9 56 0.0 10 16   99.95     LegendNANA
11:30 5.4 -4.7 48 0.0 13 15   99.90     LegendNANA
12:30 7.0 -4.5 44 0.0 8 16   99.84     LegendNANA
13:30 8.1 -3.9 42 0.0 11 13   99.81     LegendNANA
14:30 8.7 -4.0 40 0.0 8 16   99.75     LegendNANA
15:30 9.1 -3.9 40 0.0 10 18   99.71     LegendNANA
16:30 8.3 -3.2 44 0.0 9 12   99.68     LegendNANA
17:30 8.4 -3.0 45 0.0 9 13   99.65     LegendNANA
18:30 6.7 -2.1 53 0.0 8 13   99.65     LegendNANA
19:30 3.2 -2.1 68 0.0 7 21   99.67     LegendNANA
20:30 2.0 -2.2 74 0.0 7 25   99.69     LegendNANA
21:30 1.3 -2.5 76 0.0 7 20   99.65     LegendNANA
22:30 1.0 -2.3 79 0.0 7 15   99.59     LegendNANA
23:30 1.6 -1.8 78 0.0 7 14   99.52     LegendNANA

Notes on Data Quality.

Legend

  • E = Estimated
  • M = Missing
  • NA = Not Available*
  • [empty] = Indicates an unobserved value
Date modified: